Regional Weather Roundup
Issued by NWS State College, PA

Home | Current Version | Previous Version | Text Only | Print | Product List | Glossary Off
Versions: 1 2 3 4 5 6 7 8 9 10 11 12 13 14 15 16 17 18 19 20 21 22 23 24 25 26 27 28 29 30 31 32 33 34 35 36 37 38 39 40 41 42 43 44 45 46 47 48 49 50

000
ASUS41 KCTP 011210
RWRCTP

REGIONAL WEATHER ROUNDUP
NATIONAL WEATHER SERVICE STATE COLLEGE PA
800 AM EDT WED OCT 01 2014

Note: "fair" indicates few or no clouds below 12,000 feet with no
significant weather and/or obstructions to visibility.

* = STATION THAT DOES NOT REPORT PRECIPITATION /E.G. RAIN...SNOW...ETC/
    THUNDER OR FOG.

PAZ002>004-007>009-013>016-020>023-029>032-011300-
WESTERN PENNSYLVANIA

CITY           SKY/WX    TMP DP  RH WIND       PRES   REMARKS
ERIE           MOCLDY    55  52  89 CALM      30.02R
MEADVILLE      FOG       55  53  93 CALM      30.02R VSB 1/4
FRANKLIN*      CLOUDY    54  52  94 NE5       30.03R VSB 1/4
NEW CASTLE     FOG       55  55 100 CALM      30.03R VSB 1/2
BEAVER COUNTY  FOG       55  54  94 N3        30.01R VSB 1/4
BUTLER*        CLOUDY    52  50  93 NE5       30.03S VSB<1/4
PITTSBURGH INT FOG       54  54 100 NE5       30.01R VSB 1/16
PITTSBURGH     FOG       55  53  93 CALM      30.00R VSB<1/4
INDIANA*       CLEAR     52  50  93 CALM      30.05R FOG
LATROBE        PTCLDY    52  52 100 CALM      30.00S
WASHINGTON CO* CLOUDY    55  54  94 CALM      30.02R
$$

PAZ004>006-010>012-017>019-024>028-033>037-041-042-045-046-049>053-011300-
CENTRAL PENNSYLVANIA

CITY           SKY/WX    TMP DP  RH WIND       PRES   REMARKS
BRADFORD       FOG       53  52  96 CALM      30.05R VSB<1/4
DUBOIS         FOG       51  51 100 E3        30.02R VSB<1/4
CLEARFIELD     FOG       53  53 100 CALM      30.03R VSB<1/4
JOHNSTOWN      MOCLDY    54  52  93 SE5       30.03R FOG
ALTOONA        CLOUDY    58  57  97 CALM      30.03R FOG
STATE COLLEGE  FOG       54  54 100 CALM      30.03R VSB 1/8
WILLIAMSPORT   CLOUDY    61  58  90 CALM      30.02R FOG
SELINSGROVE    PTCLDY    59  57  93 CALM      30.03R FOG
FT INDIANTOWN  CLOUDY    57  57 100 SW3       30.04R FOG
CAPITAL CITY   CLOUDY    61  58  90 NE3       30.03R
HARRISBURG     CLOUDY    60  58  92 N3        30.03R FOG
YORK           CLOUDY    61  60  97 NE6       30.02S FOG
$$

PAZ038>040-043-044-047-048-054-055-060>062-067>071-011300-
EASTERN PENNSYLVANIA

CITY           SKY/WX    TMP DP  RH WIND       PRES   REMARKS
SCRANTON       MOSUNNY   60  55  83 NE7       30.03R
MOUNT POCONO   FOG       56  54  93 E6        30.04S VSB 1/2
ALLENTOWN      PTSUNNY   60  56  86 E7        30.03R
QUAKERTOWN*    PTSUNNY   59  57  94 CALM      30.04R
READING        PTSUNNY   61  59  93 CALM      30.02R
LANCASTER      CLOUDY    57  56  96 NW3       30.03R FOG
COATESVILLE    CLOUDY    59  59 100 NE6       30.03R FOG
POTTSTOWN      MOSUNNY   59  57  93 CALM      30.04R
BLUE BELL      CLOUDY    61  59  94 CALM      30.01R
DOYLESTOWN     MOSUNNY   59  57  93 N3        30.02R
WILLOW GROVE   NOT AVBL
NORTH PHILA    PTSUNNY   63  56  78 NE7       30.02R
PHILADELPHIA   CLOUDY    64  58  80 NE6       30.01R
$$


USA.gov is the U.S. government's official web portal to all federal, state and local government web resources and services.